Location: Newark
(7.1028°S, 35.3258°W)
Time: 06:49:20
(UTC+00:00)

Vanguard 1 - Visible Passes

Search period start: 25 February 2020 00:00
Search period end: 06 March 2020 00:00
Orbit: 650 x 3833 km, 34.2° (Epoch: 24 February)

Date Brightness Start Highest point End Pass type
(mag) Time Alt. Az. Time Alt. Az. Time Alt. Az.
25 Feb 12.6 04:18:30 55° SE 04:18:30 55° SE 04:39:21 10° ENE visible
25 Feb 12.7 06:31:21 28° WSW 06:44:05 69° NW 07:07:43 10° NE visible
25 Feb 12.2 21:23:51 10° SSW 21:24:33 10° SSW 21:25:17 10° S visible
26 Feb 14.0 02:26:55 10° E 02:26:55 10° E 02:26:57 10° E visible
26 Feb 12.4 04:39:46 68° SE 04:39:46 68° SE 05:01:53 10° ENE visible
26 Feb 12.8 06:52:36 25° WSW 07:05:52 56° NW 07:28:44 10° NE visible
27 Feb 13.8 02:48:03 15° E 02:48:03 15° E 02:51:10 10° E visible
27 Feb 12.3 05:00:52 83° SE 05:00:52 83° SE 05:23:58 10° NE visible
27 Feb 13.1 07:13:42 20° W 07:27:50 45° NW 07:49:31 10° NNE visible
28 Feb 13.7 03:09:01 21° E 03:09:01 21° E 03:14:48 10° E visible
28 Feb 12.2 05:21:49 81° NW 05:22:06 81° NW 05:45:39 10° NE visible
28 Feb 13.3 07:34:39 15° W 07:50:00 36° NW 08:10:08 10° NNE visible
29 Feb 13.5 03:29:50 27° E 03:29:50 27° E 03:37:54 10° ENE visible
29 Feb 12.3 05:42:38 66° NW 05:43:44 66° NW 06:07:00 10° NE visible
29 Feb 13.4 07:55:58 10° W 08:12:28 28° NNW 08:30:36 10° NNE visible
01 Mar 13.3 03:50:30 33° ENE 03:50:30 33° ENE 04:00:28 10° ENE visible
01 Mar 12.5 06:03:17 52° NW 06:05:33 53° NW 06:28:06 10° NE visible
02 Mar 13.1 04:11:00 38° ENE 04:11:00 38° ENE 04:22:34 10° NE visible
02 Mar 12.7 06:23:47 40° NW 06:27:36 42° NNW 06:48:58 10° NNE visible
03 Mar 13.0 04:31:23 42° NE 04:31:23 42° NE 04:44:16 10° NE visible
03 Mar 13.0 06:44:09 29° NW 06:49:54 33° NNW 07:09:40 10° NNE visible
04 Mar 12.9 04:51:38 43° NNE 04:51:38 43° NNE 05:05:39 10° NE visible
04 Mar 13.2 07:04:23 21° WNW 07:12:30 26° NNW 07:30:16 10° NNE visible
05 Mar 12.9 05:11:46 41° N 05:11:46 41° N 05:26:46 10° NE visible
05 Mar 13.5 07:24:30 13° WNW 07:35:31 20° NNW 07:50:47 10° NNE visible
